Location: Hackbridge
(51.3833°N, 0.1500°W)
Time: 07:25:47
(UTC+00:00)

USA 234 - Pass Details

Date: 13 October 2019
Orbit: 1102 x 1106 km, 123.0° (Epoch: 12 November)

Event Time Altitude Azimuth Distance (km) Brightness Sun altitude
Exits shadow 19:41:16 35° 150° (SSE) 1,691 3.8 -23.8°
Drops below altitude 10° 19:46:19 10° 199° (SSW) 2,955 5.5 -24.5°
Sets 19:49:01 0° 208° (SSW) 3,910 6.2 -24.9°
